When you browse on this site, cookies collect data to enhance your experience and personalize the content and advertising you see.
Visit our Privacy Policy to learn more. By continuing to use the site, you agree to this use of cookies and data.
  • In Schweiz
  • Länderverzeichnis
  • Für 7 Tage
  • Wassertemperatur
  • Wetterkarte
  • Widgets
  • user-avatar
    Anmelden

    Stündliche Wetter Uige

    Heute, 20 November, Mittwoch

    Zeit Temperatur Niederschläge Wind Luftdruck Luftfeuchtigkeit
    00:00 +20°C° 0.1 mm 0 m/S 690 mmHg 97%
    01:00 +20°C° 0 mm 0 m/S 690 mmHg 98%
    02:00 +20°C° 0.1 mm 0 m/S 689 mmHg 98%
    03:00 +20°C° 0.1 mm 0 m/S 689 mmHg 98%
    04:00 +20°C° 0.1 mm 0 m/S 689 mmHg 98%
    05:00 +21°C° 0.1 mm 0 m/S 689 mmHg 97%
    06:00 +21°C° 0.1 mm 0 m/S 690 mmHg 96%
    07:00 +22°C° 0.1 mm 0 m/S 691 mmHg 95%
    08:00 +23°C° 0.1 mm 0 m/S 691 mmHg 86%
    09:00 +27°C° 0.1 mm 1 m/S 691 mmHg 77%
    10:00 +29°C° 0.1 mm 1 m/S 691 mmHg 68%
    11:00 +29°C° 0.7 mm 1 m/S 691 mmHg 73%
    12:00 +29°C° 0.7 mm 2 m/S 690 mmHg 77%
    13:00 +28°C° 0.7 mm 2 m/S 689 mmHg 82%
    14:00 +28°C° 1.7 mm 2 m/S 688 mmHg 85%
    15:00 +27°C° 1.7 mm 2 m/S 688 mmHg 87%
    16:00 +27°C° 1.7 mm 1 m/S 687 mmHg 90%
    17:00 +26°C° 0.6 mm 1 m/S 688 mmHg 92%
    18:00 +24°C° 0.6 mm 1 m/S 688 mmHg 93%
    19:00 +23°C° 0.6 mm 1 m/S 689 mmHg 95%
    20:00 +23°C° 0.1 mm 1 m/S 689 mmHg 95%
    21:00 +22°C° 0.1 mm 1 m/S 690 mmHg 96%
    22:00 +22°C° 0.1 mm 1 m/S 690 mmHg 96%
    23:00 +22°C° 0.1 mm 1 m/S 690 mmHg 97%

    Morgen, 21 November, Donnerstag

    Zeit Temperatur Niederschläge Wind Luftdruck Luftfeuchtigkeit
    00:00 +22°C° 0.1 mm 1 m/S 690 mmHg 98%
    01:00 +20°C° 0.1 mm 0 m/S 690 mmHg 98%
    02:00 +22°C° 0.4 mm 1 m/S 690 mmHg 98%
    03:00 +22°C° 0.4 mm 1 m/S 690 mmHg 99%
    04:00 +22°C° 0.4 mm 1 m/S 690 mmHg 99%
    05:00 +22°C° 0.3 mm 1 m/S 690 mmHg 99%
    06:00 +20°C° 0.3 mm 0 m/S 691 mmHg 99%
    07:00 +20°C° 0.3 mm 0 m/S 691 mmHg 99%
    08:00 +22°C° 0.5 mm 1 m/S 691 mmHg 98%
    09:00 +22°C° 0.5 mm 1 m/S 691 mmHg 98%
    10:00 +22°C° 0.5 mm 1 m/S 691 mmHg 97%
    11:00 +22°C° 0.2 mm 1 m/S 691 mmHg 97%
    12:00 +22°C° 0.2 mm 1 m/S 690 mmHg 96%
    13:00 +20°C° 0.2 mm 0 m/S 690 mmHg 95%
    14:00 +22°C° 0 mm 1 m/S 690 mmHg 93%
    15:00 +22°C° 0 mm 1 m/S 689 mmHg 92%
    16:00 +22°C° 0 mm 1 m/S 689 mmHg 90%
    17:00 +22°C° 0 mm 1 m/S 689 mmHg 91%
    18:00 +21°C° 0 mm 1 m/S 690 mmHg 93%
    19:00 +18°C° 0 mm 0 m/S 690 mmHg 94%
    20:00 +18°C° 0 mm 0 m/S 690 mmHg 93%
    21:00 +18°C° 0 mm 0 m/S 690 mmHg 93%
    22:00 +18°C° 0 mm 0 m/S 691 mmHg 92%
    23:00 +20°C° 0 mm 1 m/S 690 mmHg 92%

    übermorgen, 22 November, Freitag

    Zeit Temperatur Niederschläge Wind Luftdruck Luftfeuchtigkeit
    00:00 +20°C° 0 mm 1 m/S 690 mmHg 92%
    01:00 +20°C° 0 mm 1 m/S 690 mmHg 92%
    02:00 +18°C° 0 mm 0 m/S 690 mmHg 93%
    03:00 +18°C° 0 mm 0 m/S 690 mmHg 93%
    04:00 +18°C° 0 mm 0 m/S 690 mmHg 93%
    05:00 +18°C° 0 mm 0 m/S 690 mmHg 93%
    06:00 +18°C° 0 mm 0 m/S 691 mmHg 93%
    07:00 +19°C° 0 mm 0 m/S 691 mmHg 93%
    08:00 +19°C° 0.1 mm 0 m/S 691 mmHg 91%
    09:00 +20°C° 0.1 mm 0 m/S 691 mmHg 89%
    10:00 +21°C° 0.1 mm 0 m/S 692 mmHg 88%
    11:00 +23°C° 0 mm 1 m/S 691 mmHg 86%
    12:00 +23°C° 0 mm 1 m/S 691 mmHg 85%
    13:00 +24°C° 0 mm 2 m/S 690 mmHg 84%
    14:00 +24°C° 0 mm 2 m/S 690 mmHg 83%
    15:00 +24°C° 0 mm 2 m/S 690 mmHg 81%
    16:00 +25°C° 0 mm 2 m/S 689 mmHg 80%
    17:00 +24°C° 0 mm 2 m/S 690 mmHg 86%
    18:00 +22°C° 0 mm 1 m/S 690 mmHg 91%
    19:00 +21°C° 0 mm 1 m/S 690 mmHg 97%
    20:00 +21°C° 0 mm 1 m/S 691 mmHg 97%
    21:00 +21°C° 0 mm 1 m/S 691 mmHg 97%
    22:00 +21°C° 0 mm 1 m/S 691 mmHg 97%
    23:00 +21°C° 0 mm 1 m/S 691 mmHg 97%

    23 November, Samstag

    Zeit Temperatur Niederschläge Wind Luftdruck Luftfeuchtigkeit
    00:00 +21°C° 0 mm 1 m/S 691 mmHg 97%
    01:00 +19°C° 0 mm 0 m/S 691 mmHg 97%
    02:00 +19°C° 0 mm 0 m/S 691 mmHg 98%
    03:00 +19°C° 0 mm 0 m/S 690 mmHg 98%
    04:00 +19°C° 0 mm 0 m/S 690 mmHg 98%
    05:00 +20°C° 0 mm 0 m/S 690 mmHg 97%
    06:00 +20°C° 0 mm 0 m/S 691 mmHg 96%
    07:00 +20°C° 0 mm 0 m/S 691 mmHg 95%
    08:00 +22°C° 0.1 mm 0 m/S 691 mmHg 90%
    09:00 +23°C° 0.1 mm 0 m/S 692 mmHg 85%
    10:00 +24°C° 0.1 mm 0 m/S 692 mmHg 80%
    11:00 +26°C° 0.3 mm 1 m/S 691 mmHg 83%
    12:00 +25°C° 0.3 mm 1 m/S 691 mmHg 85%
    13:00 +25°C° 0.3 mm 1 m/S 690 mmHg 88%
    14:00 +25°C° 0.6 mm 1 m/S 690 mmHg 89%
    15:00 +23°C° 0.6 mm 0 m/S 689 mmHg 90%
    16:00 +23°C° 0.6 mm 0 m/S 689 mmHg 91%
    17:00 +22°C° 1.5 mm 0 m/S 689 mmHg 93%
    18:00 +21°C° 1.5 mm 0 m/S 690 mmHg 94%
    19:00 +20°C° 1.5 mm 0 m/S 690 mmHg 96%
    20:00 +20°C° 1.4 mm 0 m/S 690 mmHg 97%
    21:00 +20°C° 1.4 mm 0 m/S 691 mmHg 97%
    22:00 +20°C° 1.4 mm 0 m/S 691 mmHg 98%
    23:00 +20°C° 1 mm 0 m/S 691 mmHg 98%

    24 November, Sonntag

    Zeit Temperatur Niederschläge Wind Luftdruck Luftfeuchtigkeit
    00:00 +19°C° 1 mm 0 m/S 690 mmHg 99%
    01:00 +19°C° 1 mm 0 m/S 690 mmHg 99%
    02:00 +19°C° 0 mm 0 m/S 690 mmHg 99%
    03:00 +19°C° 0 mm 0 m/S 689 mmHg 98%
    04:00 +19°C° 0 mm 0 m/S 689 mmHg 98%
    05:00 +19°C° 0 mm 0 m/S 690 mmHg 98%
    06:00 +19°C° 0 mm 0 m/S 690 mmHg 97%
    07:00 +19°C° 0 mm 0 m/S 690 mmHg 97%
    08:00 +20°C° 0 mm 0 m/S 691 mmHg 96%
    09:00 +20°C° 0 mm 0 m/S 691 mmHg 96%
    10:00 +21°C° 0 mm 0 m/S 691 mmHg 95%
    11:00 +22°C° 0 mm 0 m/S 691 mmHg 91%
    12:00 +24°C° 0 mm 1 m/S 690 mmHg 86%
    13:00 +25°C° 0 mm 1 m/S 690 mmHg 81%
    14:00 +25°C° 0.1 mm 1 m/S 690 mmHg 82%
    15:00 +25°C° 0.1 mm 1 m/S 689 mmHg 83%
    16:00 +25°C° 0.1 mm 1 m/S 689 mmHg 84%
    17:00 +24°C° 0.5 mm 1 m/S 689 mmHg 88%
    18:00 +21°C° 0.5 mm 0 m/S 689 mmHg 92%
    19:00 +20°C° 0.5 mm 0 m/S 689 mmHg 96%
    20:00 +20°C° 0.5 mm 0 m/S 690 mmHg 96%
    21:00 +20°C° 0.5 mm 0 m/S 690 mmHg 96%
    22:00 +19°C° 0.5 mm 0 m/S 691 mmHg 96%
    23:00 +19°C° 0.2 mm 0 m/S 690 mmHg 97%

    25 November, Montag

    Zeit Temperatur Niederschläge Wind Luftdruck Luftfeuchtigkeit
    00:00 +19°C° 0.2 mm 0 m/S 690 mmHg 97%
    01:00 +19°C° 0.2 mm 0 m/S 690 mmHg 97%
    02:00 +19°C° 0.1 mm 0 m/S 689 mmHg 97%
    03:00 +19°C° 0.1 mm 0 m/S 689 mmHg 97%
    04:00 +19°C° 0.1 mm 0 m/S 689 mmHg 97%
    05:00 +19°C° 0.3 mm 0 m/S 690 mmHg 96%
    06:00 +19°C° 0.3 mm 0 m/S 690 mmHg 96%
    07:00 +20°C° 0.3 mm 0 m/S 691 mmHg 95%
    08:00 +21°C° 0.7 mm 0 m/S 691 mmHg 94%
    09:00 +24°C° 0.7 mm 1 m/S 691 mmHg 93%
    10:00 +25°C° 0.7 mm 1 m/S 691 mmHg 91%
    11:00 +25°C° 1.1 mm 1 m/S 691 mmHg 89%
    12:00 +26°C° 1.1 mm 1 m/S 690 mmHg 88%
    13:00 +27°C° 1.1 mm 1 m/S 689 mmHg 86%
    14:00 +26°C° 1.6 mm 1 m/S 689 mmHg 88%
    15:00 +26°C° 1.6 mm 1 m/S 688 mmHg 90%
    16:00 +25°C° 1.6 mm 1 m/S 688 mmHg 92%
    17:00 +22°C° 0.6 mm 0 m/S 688 mmHg 93%
    18:00 +21°C° 0.6 mm 0 m/S 689 mmHg 94%
    19:00 +20°C° 0.6 mm 0 m/S 689 mmHg 95%
    20:00 +20°C° 0 mm 0 m/S 690 mmHg 95%
    21:00 +20°C° 0 mm 0 m/S 690 mmHg 95%
    22:00 +19°C° 0 mm 0 m/S 691 mmHg 96%
    23:00 +19°C° 0 mm 0 m/S 690 mmHg 96%
    Mehr zeigen